W4FAA Weather Reports


time (UTC)temp
F
wind
direction
speed
knots
gust
knots
rain 1hr
in
rain 24hr
in
rain mn
in
humidity
%
barometer
mb
20260505053030 66 72 0.0 0.0 0.00 0.00 0.00 89 1015.0
20260505051519 66 67 0.0 2.6 0.00 0.00 0.00 89 1014.9
20260505041530 67 81 2.6 5.2 0.00 0.00 0.00 87 1015.1
20260505040018 67 94 1.7 5.2 0.00 0.00 0.00 86 1015.1
20260505034520 68 83 1.7 3.5 0.00 0.00 0.00 85 1015.2
20260505033025 68 87 1.7 5.2 0.00 0.00 0.00 85 1015.5
20260505031526 68 84 2.6 6.1 0.00 0.00 0.00 84 1015.4
20260505030016 69 87 3.5 6.1 0.00 0.00 0.00 83 1015.3
20260505024519 69 84 3.5 7.0 0.00 0.00 0.00 83 1015.4
20260505023027 70 93 3.5 7.0 0.00 0.00 0.00 82 1015.3
20260505021531 70 71 2.6 3.5 0.00 0.00 0.00 81 1015.2
20260505020028 71 88 2.6 6.1 0.00 0.00 0.00 80 1015.2
20260505014516 72 88 4.3 9.6 0.00 0.00 0.00 79 1015.3
20260505013021 72 113 5.2 7.8 0.00 0.00 0.00 78 1015.1
20260505011526 73 82 3.5 6.1 0.00 0.00 0.00 77 1015.0
20260505010029 74 101 4.3 9.6 0.00 0.00 0.00 75 1014.9
20260505004528 74 108 6.1 9.6 0.00 0.00 0.00 74 1014.9
20260505003019 75 110 7.8 13.0 0.00 0.00 0.00 73 1014.5
20260505001524 75 121 6.1 10.4 0.00 0.00 0.00 71 1014.0
20260505000029 76 76 7.8 12.2 0.00 0.00 0.00 71 1014.1
20260504234533 76 82 4.3 9.6 0.00 0.00 0.00 70 1013.8
20260504233017 77 105 7.8 11.3 0.00 0.00 0.00 68 1013.6
20260504231521 77 112 8.7 13.0 0.00 0.00 0.00 67 1013.3
20260504230006 78 95 8.7 17.4 0.00 0.00 0.00 65 1013.4
20260504224513 79 92 9.6 13.9 0.00 0.00 0.00 64 1013.4
20260504223014 79 97 10.4 16.5 0.00 0.00 0.00 63 1013.2
20260504221519 80 86 11.3 17.4 0.00 0.00 0.00 62 1013.2
20260504220006 81 98 8.7 14.8 0.00 0.00 0.00 60 1013.2
20260504214518 81 104 10.4 14.8 0.00 0.00 0.00 59 1013.3
20260504213012 81 98 11.3 14.8 0.00 0.00 0.00 59 1013.3
20260504211526 81 94 10.4 14.8 0.00 0.00 0.00 60 1013.3
20260504210022 81 59 7.8 14.8 0.00 0.00 0.00 59 1013.3
20260504204514 82 100 11.3 17.4 0.00 0.00 0.00 58 1013.3
20260504203012 82 80 10.4 13.9 0.00 0.00 0.00 56 1013.3
20260504201514 81 80 8.7 15.6 0.00 0.00 0.00 57 1013.4
20260504200020 82 94 7.0 13.0 0.00 0.00 0.00 56 1013.5
20260504194523 83 96 9.6 15.6 0.00 0.00 0.00 56 1013.5
20260504193009 82 79 9.6 14.8 0.00 0.00 0.00 56 1013.7
20260504191520 82 81 7.8 16.5 0.00 0.00 0.00 58 1014.2
20260504190020 82 112 8.7 15.6 0.00 0.00 0.00 58 1014.4
20260504184528 81 84 9.6 13.0 0.00 0.00 0.00 58 1014.6
20260504183008 82 90 7.0 12.2 0.00 0.00 0.00 57 1014.9
20260504181517 82 46 8.7 15.6 0.00 0.00 0.00 59 1015.1
20260504180022 81 73 10.4 13.9 0.00 0.00 0.00 59 1015.3
20260504174524 81 84 9.6 14.8 0.00 0.00 0.00 57 1015.2
20260504173031 80 51 6.1 12.2 0.00 0.00 0.00 59 1015.5
20260504171511 80 79 4.3 9.6 0.00 0.00 0.00 57 1015.6
20260504081515 65 12 0.0 0.0 0.00 0.00 0.00 91 1014.8